Monroe, WI

5:43 PM CDT on September 27, 2016 (GMT -0500)
Monroe Municipal

Weather History for KEFT - April, 2014

Change the Weather History Date:

Tuesday, April 29, 2014

  Actual Average Record
Temperature  
Mean Temperature 46 °F -  
Max Temperature 51 °F 0 °F 82 °F (2007)
Min Temperature 41 °F - 32 °F (1999)
Degree Days  
Heating Degree Days 19    
Moisture  
Dew Point 46 °F    
Average Humidity 100    
Maximum Humidity 100    
Minimum Humidity 100    
Precipitation  
Precipitation 0.11 in - - ()
Sea Level Pressure  
Sea Level Pressure 29.52 in    
Wind  
Wind Speed 11 mph (East)    
Max Wind Speed 15 mph    
Max Gust Speed 22 mph    
Visibility 6 miles    
Events Fog , Rain    
Averages and records for this station are not official NWS values.
T = Trace of Precipitation, MM = Missing Value Source: NWS Daily Summary

Daily Weather History Graph

Daily Weather History Graph

Search for Another Location

Airport or City:

Trip Planner

Search our weather history database for the weather conditions in past years. The results will help you decide how hot, cold, wet, or windy it might be!

Date:

Astronomy

Apr. 29, 2014 Rise Set
Actual Time 5:55 AM CDT 7:56 PM CDT
Civil Twilight 5:25 AM CDT 8:27 PM CDT
Nautical Twilight 4:47 AM CDT 9:04 PM CDT
Astronomical Twilight 4:07 AM CDT 9:45 PM CDT
Moon 6:14 AM CDT (4/29) 8:36 PM CDT (4/29)
Length of Visible Light 15h 01m
Length of Day
14h 00m
New Moon, 0% of the Moon is Illuminated
Apr 29
New Moon
May 6
First Quarter
May 14
Full
May 21
Last Quarter
May 28
New

Hourly Weather History & Observations

Time (CDT) Temp. Windchill Dew Point Humidity Pressure Visibility Wind Dir Wind Speed Gust Speed Precip Events Conditions
12:15 AM 42.8 °F 35.4 °F 42.8 °F 100% 29.54 in 10.0 mi ENE 15.0 mph 21.9 mph N/A   Overcast
12:35 AM 42.8 °F 36.6 °F 42.8 °F 100% 29.54 in 10.0 mi ENE 11.5 mph - N/A   Overcast
12:55 AM 42.8 °F 36.6 °F 42.8 °F 100% 29.54 in 10.0 mi ENE 11.5 mph 18.4 mph N/A   Overcast
1:15 AM 42.8 °F 36.6 °F 42.8 °F 100% 29.53 in 10.0 mi ENE 11.5 mph 17.3 mph N/A   Overcast
1:35 AM 42.8 °F 36.6 °F 42.8 °F 100% 29.53 in 10.0 mi ENE 11.5 mph 17.3 mph N/A   Overcast
1:55 AM 42.8 °F 36.2 °F 42.8 °F 100% 29.53 in 7.0 mi ENE 12.7 mph 18.4 mph N/A   Overcast
2:15 AM 42.8 °F 36.6 °F 42.8 °F 100% 29.51 in 7.0 mi NE 11.5 mph 18.4 mph N/A   Light Drizzle
2:35 AM 42.8 °F 36.2 °F 42.8 °F 100% 29.51 in 5.0 mi ENE 12.7 mph 18.4 mph N/A   Light Drizzle
2:55 AM - - - N/A% 29.51 in 4.0 mi NE 9.2 mph - N/A   Haze
3:15 AM - - - N/A% 29.50 in 4.0 mi NE 12.7 mph - N/A   Haze
3:55 AM - - - N/A% 29.49 in 7.0 mi NE 12.7 mph 17.3 mph N/A   Overcast
4:15 AM - - - N/A% 29.49 in 7.0 mi ENE 9.2 mph 18.4 mph N/A   Overcast
4:35 AM - - - N/A% 29.50 in 7.0 mi ENE 11.5 mph - N/A   Overcast
4:55 AM - - - N/A% 29.48 in 4.0 mi NE 12.7 mph - N/A   Haze
5:15 AM - - - N/A% 29.49 in 4.0 mi NE 11.5 mph - N/A   Haze
5:35 AM - - - N/A% 29.48 in 3.0 mi NE 11.5 mph - N/A   Overcast
5:55 AM - - - N/A% 29.47 in 3.0 mi NE 10.4 mph - N/A   Overcast
6:15 AM - - - N/A% 29.48 in 1.8 mi NE 12.7 mph - N/A   Overcast
6:35 AM - - - N/A% 29.49 in 0.8 mi NE 11.5 mph - N/A   Overcast
6:55 AM - - - N/A% 29.48 in 0.8 mi NE 12.7 mph - N/A   Overcast
7:15 AM 41.0 °F 33.5 °F 41.0 °F 100% 29.48 in 0.8 mi NE 13.8 mph - N/A   Overcast
7:35 AM 41.0 °F 34.3 °F 41.0 °F 100% 29.48 in 0.5 mi NE 11.5 mph - N/A Fog Fog
7:55 AM 41.0 °F 33.5 °F 41.0 °F 100% 29.48 in 0.8 mi NE 13.8 mph - N/A Rain Rain
8:15 AM 41.0 °F 33.5 °F 41.0 °F 100% 29.48 in 0.8 mi NE 13.8 mph - N/A   Overcast
8:35 AM 42.8 °F 36.2 °F 42.8 °F 100% 29.48 in 1.2 mi NE 12.7 mph - N/A   Overcast
8:55 AM 42.8 °F 35.8 °F 42.8 °F 100% 29.47 in 0.5 mi NE 13.8 mph - N/A Fog Fog
9:15 AM 42.8 °F 37.5 °F 42.8 °F 100% 29.47 in 1.5 mi NE 9.2 mph - N/A   Overcast
9:35 AM 42.8 °F 37.0 °F 42.8 °F 100% 29.48 in 2.0 mi NE 10.4 mph - N/A   Overcast
9:55 AM 42.8 °F 36.2 °F 42.8 °F 100% 29.47 in 1.2 mi NE 12.7 mph - N/A   Overcast
10:15 AM 42.8 °F 36.2 °F 42.8 °F 100% 29.47 in 1.0 mi NE 12.7 mph - N/A   Overcast
10:35 AM 42.8 °F 35.4 °F 42.8 °F 100% 29.47 in 0.2 mi NE 15.0 mph - N/A Fog Fog
10:50 AM 44.6 °F 38.4 °F 44.6 °F 100% 29.47 in 0.8 mi NE 12.7 mph - N/A   Overcast
11:15 AM 44.6 °F 39.2 °F 44.6 °F 100% 29.47 in 2.5 mi NE 10.4 mph - N/A   Overcast
11:35 AM 44.6 °F 40.2 °F 44.6 °F 100% 29.47 in 3.0 mi ENE 8.1 mph - N/A   Light Drizzle
11:55 AM 44.6 °F 39.7 °F 44.6 °F 100% 29.47 in 3.0 mi ENE 9.2 mph - N/A   Overcast
12:15 PM 46.4 °F 41.9 °F 46.4 °F 100% 29.46 in 5.0 mi ENE 9.2 mph 16.1 mph N/A Rain Light Rain
12:35 PM 46.4 °F 42.9 °F 46.4 °F 100% 29.47 in 5.0 mi ENE 6.9 mph - N/A   Overcast
1:15 PM 46.4 °F 42.9 °F 46.4 °F 100% 29.47 in 4.0 mi ENE 6.9 mph - 0.02 in Rain Light Rain
1:35 PM 46.4 °F 43.5 °F 46.4 °F 100% 29.47 in 3.0 mi ENE 5.8 mph - 0.03 in Rain Rain
1:55 PM 46.4 °F 42.4 °F 46.4 °F 100% 29.47 in 4.0 mi ENE 8.1 mph - 0.04 in   Overcast
2:15 PM 46.4 °F 42.4 °F 46.4 °F 100% 29.48 in 5.0 mi ENE 8.1 mph - N/A   Overcast
2:35 PM 48.2 °F - 48.2 °F 100% 29.48 in 7.0 mi ENE 8.1 mph - N/A   Overcast
2:55 PM 48.2 °F - 48.2 °F 100% 29.49 in 4.0 mi ENE 4.6 mph - N/A Rain Rain
3:15 PM 48.2 °F - 48.2 °F 100% 29.50 in 3.0 mi East 4.6 mph - 0.03 in Rain Light Rain
3:35 PM 50.0 °F - 50.0 °F 100% 29.50 in 7.0 mi SE 4.6 mph - 0.04 in Rain Rain
3:55 PM 50.0 °F - 50.0 °F 100% 29.50 in 10.0 mi SSE 3.5 mph - 0.04 in   Overcast
4:15 PM 51.8 °F - 51.8 °F 100% 29.51 in 10.0 mi South 12.7 mph - N/A   Light Drizzle
4:35 PM 50.0 °F - 50.0 °F 100% 29.51 in 7.0 mi South 9.2 mph - 0.01 in   Drizzle
5:15 PM 50.0 °F - 50.0 °F 100% 29.54 in 7.0 mi SSW 12.7 mph - 0.01 in   Light Drizzle
5:30 PM 50.0 °F - 50.0 °F 100% 29.54 in 10.0 mi South 9.2 mph - 0.01 in   Light Drizzle
5:55 PM 50.0 °F - 50.0 °F 100% 29.56 in 10.0 mi SSW 12.7 mph 20.7 mph 0.01 in Rain Light Rain
6:15 PM 50.0 °F - 50.0 °F 100% 29.57 in 7.0 mi SSW 11.5 mph - N/A   Drizzle
6:35 PM 50.0 °F - 50.0 °F 100% 29.57 in 10.0 mi SSW 10.4 mph - N/A   Light Drizzle
6:55 PM 50.0 °F - 50.0 °F 100% 29.58 in 10.0 mi SSW 8.1 mph - 0.01 in   Drizzle
7:15 PM - - - N/A% 29.58 in 10.0 mi SSW 6.9 mph - N/A   Light Drizzle
7:35 PM - - - N/A% 29.58 in 10.0 mi South 8.1 mph - N/A   Light Drizzle
7:55 PM 48.2 °F - 48.2 °F 100% 29.59 in 10.0 mi SSW 6.9 mph - N/A   Light Drizzle
8:15 PM 46.4 °F 43.5 °F 46.4 °F 100% 29.59 in 10.0 mi SSW 5.8 mph - N/A Rain Light Rain
8:35 PM 46.4 °F 42.9 °F 46.4 °F 100% 29.59 in 10.0 mi SSW 6.9 mph - N/A   Light Drizzle
9:35 PM 46.4 °F 41.9 °F 46.4 °F 100% 29.60 in 10.0 mi South 9.2 mph - N/A Rain Rain
9:55 PM 46.4 °F 41.5 °F 46.4 °F 100% 29.61 in 10.0 mi South 10.4 mph - N/A   Overcast
10:15 PM 46.4 °F 41.9 °F 46.4 °F 100% 29.61 in 10.0 mi South 9.2 mph - N/A   Drizzle
10:35 PM - - - N/A% 29.61 in 10.0 mi South 10.4 mph - N/A   Overcast
10:55 PM - - - N/A% 29.60 in 10.0 mi South 9.2 mph - N/A   Overcast
11:15 PM - - - N/A% 29.61 in 10.0 mi South 10.4 mph - N/A   Overcast
11:35 PM - - - N/A% 29.61 in 10.0 mi South 9.2 mph - N/A   Overcast
11:55 PM 46.4 °F 41.9 °F 46.4 °F 100% 29.61 in 10.0 mi South 9.2 mph - N/A   Overcast